Location: Leeds
(37.2390°N, 113.3580°W)
Time: 03:27:39
(UTC-06:00)

SL-08 RB Rocket - Visible Passes

Search period start: 05 July 2015 00:00
Search period end: 15 July 2015 00:00
Orbit: 648 x 687 km, 98.1° (Epoch: 05 July)

Date Brightness Start Highest point End Pass type
(mag) Time Alt. Az. Time Alt. Az. Time Alt. Az.
05 Jul 5.4 00:05:00 22° WSW 00:05:44 23° W 00:09:16 10° NW visible
05 Jul 3.7 22:59:13 43° SE 23:00:30 65° ENE 23:04:57 10° N visible
06 Jul 5.7 21:53:46 10° E 21:55:48 13° ENE 21:58:03 10° NE visible
06 Jul 4.1 23:31:35 45° SW 23:32:28 54° W 23:36:53 10° NNW visible
07 Jul 4.8 22:25:48 21° ESE 22:27:33 28° ENE 22:31:24 10° NNE visible
08 Jul 5.4 00:03:57 23° WSW 00:04:37 24° W 00:08:11 10° NW visible
08 Jul 3.7 22:58:10 44° SE 22:59:24 63° ENE 23:03:50 10° N visible
09 Jul 6.3 00:36:20 10° W 00:36:59 10° W 00:37:21 10° W visible
09 Jul 5.8 21:52:48 10° E 21:54:42 13° ENE 21:56:50 10° NE visible
09 Jul 4.1 23:30:33 48° SW 23:31:22 55° W 23:35:47 10° NNW visible
10 Jul 4.9 22:24:46 21° ESE 22:26:26 27° ENE 22:30:16 10° NNE visible
11 Jul 5.3 00:02:55 24° WSW 00:03:31 24° W 00:07:07 10° NW visible
11 Jul 3.7 22:57:08 45° SE 22:58:18 61° ENE 23:02:42 10° N visible
12 Jul 6.3 00:35:18 10° W 00:35:52 10° W 00:36:35 10° W visible
12 Jul 5.8 21:51:48 10° E 21:53:36 13° ENE 21:55:37 10° NE visible
12 Jul 4.0 23:29:31 50° SW 23:30:15 57° W 23:34:40 10° NNW visible
13 Jul 4.9 22:23:44 21° ESE 22:25:20 27° ENE 22:29:06 10° NNE visible
14 Jul 5.3 00:01:54 24° WSW 00:02:23 25° W 00:06:02 10° NW visible
14 Jul 3.8 22:56:07 45° SE 22:57:10 59° ENE 23:01:35 10° N visible
